Location: *
(33.8649°S, 62.1526°E)
Time: 04:31:11
(UTC+00:00)

Cosmos 2221 - Pass Details

Date: 17 January 2021
Orbit: 592 x 615 km, 82.5° (Epoch: 27 February)

Event Time Altitude Azimuth Distance (km) Brightness Sun altitude
Exits shadow 17:12:07 28° 119° (ESE) 1,171 3.8 -22.2°
Drops below altitude 10° 17:14:53 10° 152° (SSE) 1,983 5.4 -22.6°
Sets 17:17:17 0° 161° (SSE) 2,891 6.4 -22.9°
